| time (UTC) | temp F | wind direction | speed MPH | gust MPH | rain 1hr in | rain 24hr in | rain mn in | humidity % | barometer mb |
| 20260905071531 | 80 | 360 | 0.0 | 0.0 | 0.00 | 0.00 | 0.00 | 18 | 1002.7 |
| 20260905071008 | 79 | 360 | 0.0 | 0.0 | 0.00 | 0.00 | 0.00 | 18 | 1002.6 |
| 20260905070551 | 79 | 360 | 0.0 | 0.0 | 0.00 | 0.00 | 0.00 | 18 | 1002.6 |
| 20260905070036 | 80 | 360 | 1.0 | 0.0 | 0.00 | 0.00 | 0.00 | 18 | 1002.5 |
| 20260905065518 | 80 | 360 | 1.0 | 0.0 | 0.00 | 0.00 | 0.00 | 18 | 1002.7 |
| 20260905065059 | 80 | 360 | 1.0 | 0.0 | 0.00 | 0.00 | 0.00 | 18 | 1002.8 |
| 20260905064543 | 79 | 360 | 1.0 | 0.0 | 0.00 | 0.00 | 0.00 | 18 | 1002.7 |
| 20260905064023 | 78 | 360 | 1.0 | 0.0 | 0.00 | 0.00 | 0.00 | 19 | 1002.8 |
| 20260905063503 | 78 | 360 | 1.0 | 0.0 | 0.00 | 0.00 | 0.00 | 18 | 1002.8 |
| 20260905063047 | 79 | 360 | 0.0 | 0.0 | 0.00 | 0.00 | 0.00 | 18 | 1002.5 |
| 20260905062527 | 79 | 360 | 0.0 | 0.0 | 0.00 | 0.00 | 0.00 | 18 | 1002.5 |
| 20260905062009 | 79 | 360 | 0.0 | 0.0 | 0.00 | 0.00 | 0.00 | 18 | 1002.5 |
| 20260905061620 | 79 | 360 | 0.0 | 0.0 | 0.00 | 0.00 | 0.00 | 18 | 1002.4 |
| 20260905061035 | 79 | 360 | 0.0 | 0.0 | 0.00 | 0.00 | 0.00 | 18 | 1002.4 |
| 20260905060518 | 80 | 360 | 0.0 | 0.0 | 0.00 | 0.00 | 0.00 | 18 | 1002.3 |
| 20260905060115 | 80 | 360 | 0.0 | 0.0 | 0.00 | 0.00 | 0.00 | 18 | 1002.1 |
| 20260905055543 | 80 | 360 | 0.0 | 0.0 | 0.00 | 0.00 | 0.00 | 18 | 1002.2 |
| 20260905055025 | 79 | 360 | 0.0 | 0.0 | 0.00 | 0.00 | 0.00 | 18 | 1002.4 |
| 20260905054502 | 79 | 360 | 0.0 | 0.0 | 0.00 | 0.00 | 0.00 | 18 | 1002.4 |
| 20260905054052 | 79 | 360 | 1.0 | 0.0 | 0.00 | 0.00 | 0.00 | 18 | 1002.4 |
| 20260905053534 | 80 | 360 | 1.0 | 0.0 | 0.00 | 0.00 | 0.00 | 18 | 1002.4 |
| 20260905053011 | 80 | 360 | 1.0 | 0.0 | 0.00 | 0.00 | 0.00 | 17 | 1002.4 |
| 20260905052552 | 80 | 360 | 1.0 | 0.0 | 0.00 | 0.00 | 0.00 | 17 | 1002.4 |
| 20260905052037 | 80 | 360 | 0.0 | 0.0 | 0.00 | 0.00 | 0.00 | 17 | 1002.2 |
| 20260905051515 | 82 | 360 | 0.0 | 0.0 | 0.00 | 0.00 | 0.00 | 17 | 1002.0 |
| 20260905051057 | 83 | 360 | 0.0 | 0.0 | 0.00 | 0.00 | 0.00 | 17 | 1002.1 |
| 20260905050548 | 83 | 360 | 0.0 | 0.0 | 0.00 | 0.00 | 0.00 | 17 | 1002.0 |
| 20260905050033 | 83 | 360 | 0.0 | 0.0 | 0.00 | 0.00 | 0.00 | 17 | 1002.0 |
| 20260905045509 | 83 | 360 | 0.0 | 0.0 | 0.00 | 0.00 | 0.00 | 17 | 1002.1 |
| 20260905045053 | 83 | 360 | 0.0 | 0.0 | 0.00 | 0.00 | 0.00 | 18 | 1002.1 |
| 20260905044538 | 83 | 360 | 0.0 | 0.0 | 0.00 | 0.00 | 0.00 | 18 | 1002.1 |
| 20260905044019 | 83 | 360 | 0.0 | 0.0 | 0.00 | 0.00 | 0.00 | 17 | 1001.9 |
| 20260905043603 | 83 | 360 | 0.0 | 0.0 | 0.00 | 0.00 | 0.00 | 17 | 1001.9 |
| 20260905043044 | 83 | 360 | 0.0 | 0.0 | 0.00 | 0.00 | 0.00 | 17 | 1001.9 |
| 20260905042526 | 84 | 360 | 0.0 | 0.0 | 0.00 | 0.00 | 0.00 | 17 | 1001.9 |
| 20260905042009 | 84 | 360 | 0.0 | 0.0 | 0.00 | 0.00 | 0.00 | 17 | 1001.9 |
| 20260905041601 | 84 | 360 | 0.0 | 0.0 | 0.00 | 0.00 | 0.00 | 17 | 1001.9 |
| 20260905041035 | 84 | 360 | 0.0 | 0.0 | 0.00 | 0.00 | 0.00 | 17 | 1001.7 |
| 20260905040517 | 84 | 360 | 0.0 | 0.0 | 0.00 | 0.00 | 0.00 | 17 | 1001.6 |
| 20260905040004 | 85 | 360 | 0.0 | 0.0 | 0.00 | 0.00 | 0.00 | 17 | 1001.5 |
| 20260905035548 | 84 | 360 | 0.0 | 0.0 | 0.00 | 0.00 | 0.00 | 17 | 1002.0 |
| 20260905035030 | 85 | 360 | 0.0 | 0.0 | 0.00 | 0.00 | 0.00 | 17 | 1001.9 |
| 20260905034510 | 85 | 360 | 0.0 | 0.0 | 0.00 | 0.00 | 0.00 | 17 | 1001.9 |
| 20260905034056 | 85 | 360 | 1.0 | 0.0 | 0.00 | 0.00 | 0.00 | 16 | 1001.9 |
| 20260905033535 | 85 | 360 | 1.0 | 0.0 | 0.00 | 0.00 | 0.00 | 16 | 1001.7 |
| 20260905033028 | 85 | 360 | 1.0 | 0.0 | 0.00 | 0.00 | 0.00 | 16 | 1001.5 |
| 20260905032602 | 86 | 360 | 1.0 | 0.0 | 0.00 | 0.00 | 0.00 | 16 | 1001.5 |
| 20260905032046 | 86 | 360 | 1.0 | 0.0 | 0.00 | 0.00 | 0.00 | 16 | 1001.4 |
| 20260905031526 | 86 | 360 | 1.0 | 0.0 | 0.00 | 0.00 | 0.00 | 16 | 1001.4 |
| 20260905031006 | 86 | 360 | 1.0 | 0.0 | 0.00 | 0.00 | 0.00 | 15 | 1001.4 |
| 20260905030553 | 86 | 360 | 1.0 | 0.0 | 0.00 | 0.00 | 0.00 | 15 | 1001.3 |
| 20260905030039 | 87 | 360 | 1.0 | 0.0 | 0.00 | 0.00 | 0.00 | 15 | 1001.2 |
| 20260905025514 | 87 | 360 | 2.0 | 0.0 | 0.00 | 0.00 | 0.00 | 15 | 1001.3 |
| 20260905025101 | 87 | 261 | 2.0 | 0.0 | 0.00 | 0.00 | 0.00 | 15 | 1001.3 |
| 20260905024541 | 88 | 188 | 2.0 | 0.0 | 0.00 | 0.00 | 0.00 | 15 | 1001.2 |
| 20260905024022 | 88 | 261 | 3.0 | 0.0 | 0.00 | 0.00 | 0.00 | 14 | 1001.1 |
| 20260905023502 | 88 | 360 | 2.0 | 0.0 | 0.00 | 0.00 | 0.00 | 14 | 1001.0 |
| 20260905023046 | 88 | 360 | 2.0 | 0.0 | 0.00 | 0.00 | 0.00 | 14 | 1000.9 |
| 20260905022527 | 88 | 360 | 2.0 | 0.0 | 0.00 | 0.00 | 0.00 | 14 | 1000.9 |
| 20260905022010 | 89 | 360 | 2.0 | 0.0 | 0.00 | 0.00 | 0.00 | 14 | 1000.9 |
| 20260905021556 | 89 | 360 | 2.0 | 0.0 | 0.00 | 0.00 | 0.00 | 14 | 1000.9 |
| 20260905021030 | 89 | 360 | 2.0 | 0.0 | 0.00 | 0.00 | 0.00 | 13 | 1000.7 |
| 20260905020513 | 90 | 360 | 3.0 | 0.0 | 0.00 | 0.00 | 0.00 | 13 | 1000.7 |
| 20260905020053 | 90 | 360 | 3.0 | 0.0 | 0.00 | 0.00 | 0.00 | 13 | 1000.7 |
| 20260905015534 | 90 | 360 | 2.0 | 0.0 | 0.00 | 0.00 | 0.00 | 12 | 1001.1 |
| 20260905015014 | 90 | 360 | 2.0 | 0.0 | 0.00 | 0.00 | 0.00 | 12 | 1001.0 |
| 20260905014557 | 91 | 360 | 2.0 | 0.0 | 0.00 | 0.00 | 0.00 | 12 | 1000.9 |
| 20260905014046 | 91 | 360 | 2.0 | 0.0 | 0.00 | 0.00 | 0.00 | 12 | 1000.9 |
| 20260905013524 | 91 | 360 | 3.0 | 0.0 | 0.00 | 0.00 | 0.00 | 12 | 1000.8 |
| 20260905013011 | 92 | 360 | 3.0 | 0.0 | 0.00 | 0.00 | 0.00 | 12 | 1000.7 |
| 20260905012554 | 92 | 360 | 2.0 | 0.0 | 0.00 | 0.00 | 0.00 | 12 | 1000.7 |
| 20260905012037 | 92 | 310 | 2.0 | 0.0 | 0.00 | 0.00 | 0.00 | 12 | 1000.7 |
| 20260905011515 | 92 | 200 | 2.0 | 0.0 | 0.00 | 0.00 | 0.00 | 12 | 1000.7 |
| 20260905011059 | 93 | 273 | 2.0 | 0.0 | 0.00 | 0.00 | 0.00 | 12 | 1000.7 |
| 20260905010539 | 93 | 216 | 2.0 | 0.0 | 0.00 | 0.00 | 0.00 | 11 | 1000.5 |
| 20260905010020 | 94 | 355 | 2.0 | 0.0 | 0.00 | 0.00 | 0.00 | 11 | 1000.6 |
| 20260905005601 | 94 | 234 | 2.0 | 0.0 | 0.00 | 0.00 | 0.00 | 11 | 1000.5 |
| 20260905005041 | 94 | 331 | 2.0 | 0.0 | 0.00 | 0.00 | 0.00 | 11 | 1000.6 |
| 20260905004526 | 95 | 35 | 1.0 | 0.0 | 0.00 | 0.00 | 0.00 | 10 | 1000.5 |
| 20260905004104 | 95 | 286 | 1.0 | 0.0 | 0.00 | 0.00 | 0.00 | 11 | 1000.5 |
| 20260905003542 | 95 | 244 | 2.0 | 0.0 | 0.00 | 0.00 | 0.00 | 11 | 1000.5 |
| 20260905003030 | 95 | 15 | 2.0 | 0.0 | 0.00 | 0.00 | 0.00 | 11 | 1000.5 |
| 20260905002502 | 95 | 283 | 2.0 | 0.0 | 0.00 | 0.00 | 0.00 | 11 | 1000.5 |
| 20260905002051 | 96 | 214 | 2.0 | 0.0 | 0.00 | 0.00 | 0.00 | 11 | 1000.4 |
| 20260905001547 | 96 | 240 | 2.0 | 0.0 | 0.00 | 0.00 | 0.00 | 11 | 1000.5 |
| 20260905001016 | 96 | 32 | 1.0 | 0.0 | 0.00 | 0.00 | 0.00 | 11 | 1000.3 |
| 20260905000557 | 96 | 302 | 1.0 | 0.0 | 0.00 | 0.00 | 0.00 | 11 | 1000.3 |
| 20260905000039 | 96 | 247 | 2.0 | 0.0 | 0.00 | 0.00 | 0.00 | 11 | 1000.3 |
| 20260904235525 | 97 | 200 | 2.0 | 0.0 | 0.00 | 0.00 | 0.00 | 11 | 1000.4 |
| 20260904235003 | 97 | 274 | 1.0 | 0.0 | 0.00 | 0.00 | 0.00 | 11 | 1000.3 |
| 20260904234550 | 96 | 182 | 2.0 | 0.0 | 0.00 | 0.00 | 0.00 | 11 | 1000.3 |
| 20260904234029 | 96 | 201 | 2.0 | 0.0 | 0.00 | 0.00 | 0.00 | 10 | 1000.3 |
| 20260904233512 | 96 | 290 | 2.0 | 0.0 | 0.00 | 0.00 | 0.00 | 11 | 1000.3 |
| 20260904233114 | 97 | 22 | 2.0 | 0.0 | 0.00 | 0.00 | 0.00 | 11 | 1000.4 |
| 20260904232534 | 97 | 174 | 2.0 | 0.0 | 0.00 | 0.00 | 0.00 | 10 | 1000.5 |
| 20260904232021 | 97 | 252 | 2.0 | 0.0 | 0.00 | 0.00 | 0.00 | 10 | 1000.3 |
| 20260904231608 | 96 | 175 | 2.0 | 0.0 | 0.00 | 0.00 | 0.00 | 10 | 1000.4 |
| 20260904231047 | 97 | 272 | 1.0 | 0.0 | 0.00 | 0.00 | 0.00 | 10 | 1000.4 |
| 20260904230525 | 97 | 300 | 2.0 | 0.0 | 0.00 | 0.00 | 0.00 | 11 | 1000.5 |
| 20260904230005 | 97 | 245 | 2.0 | 0.0 | 0.00 | 0.00 | 0.00 | 11 | 1000.5 |
| 20260904225551 | 97 | 360 | 2.0 | 0.0 | 0.00 | 0.00 | 0.00 | 11 | 1000.4 |
| 20260904225034 | 97 | 360 | 2.0 | 0.0 | 0.00 | 0.00 | 0.00 | 11 | 1000.6 |
| 20260904224510 | 97 | 360 | 1.0 | 0.0 | 0.00 | 0.00 | 0.00 | 11 | 1000.6 |
| 20260904224053 | 97 | 360 | 2.0 | 0.0 | 0.00 | 0.00 | 0.00 | 11 | 1000.6 |
| 20260904223532 | 97 | 360 | 2.0 | 0.0 | 0.00 | 0.00 | 0.00 | 11 | 1000.7 |
| 20260904223015 | 97 | 360 | 2.0 | 0.0 | 0.00 | 0.00 | 0.00 | 11 | 1000.6 |
| 20260904222557 | 96 | 360 | 2.0 | 0.0 | 0.00 | 0.00 | 0.00 | 11 | 1000.7 |
| 20260904222040 | 97 | 360 | 2.0 | 0.0 | 0.00 | 0.00 | 0.00 | 11 | 1000.7 |
| 20260904221520 | 97 | 360 | 2.0 | 0.0 | 0.00 | 0.00 | 0.00 | 11 | 1000.8 |
| 20260904221102 | 97 | 360 | 2.0 | 0.0 | 0.00 | 0.00 | 0.00 | 11 | 1000.9 |
| 20260904220544 | 96 | 360 | 2.0 | 0.0 | 0.00 | 0.00 | 0.00 | 12 | 1000.8 |
| 20260904220026 | 96 | 360 | 2.0 | 0.0 | 0.00 | 0.00 | 0.00 | 12 | 1000.9 |
| 20260904215504 | 96 | 360 | 2.0 | 0.0 | 0.00 | 0.00 | 0.00 | 12 | 1000.9 |
| 20260904215047 | 96 | 360 | 2.0 | 0.0 | 0.00 | 0.00 | 0.00 | 11 | 1001.0 |
| 20260904214526 | 96 | 360 | 2.0 | 0.0 | 0.00 | 0.00 | 0.00 | 12 | 1001.1 |
| 20260904214008 | 95 | 360 | 2.0 | 0.0 | 0.00 | 0.00 | 0.00 | 12 | 1001.3 |
| 20260904213552 | 96 | 360 | 2.0 | 0.0 | 0.00 | 0.00 | 0.00 | 12 | 1001.3 |
| 20260904213029 | 96 | 360 | 2.0 | 0.0 | 0.00 | 0.00 | 0.00 | 11 | 1001.3 |
| 20260904212507 | 96 | 360 | 2.0 | 0.0 | 0.00 | 0.00 | 0.00 | 11 | 1001.5 |
| 20260904212049 | 96 | 360 | 2.0 | 0.0 | 0.00 | 0.00 | 0.00 | 12 | 1001.5 |
| 20260904211527 | 95 | 360 | 2.0 | 0.0 | 0.00 | 0.00 | 0.00 | 12 | 1001.7 |
| 20260904211009 | 95 | 360 | 2.0 | 0.0 | 0.00 | 0.00 | 0.00 | 12 | 1001.8 |
| 20260904210555 | 95 | 360 | 2.0 | 0.0 | 0.00 | 0.00 | 0.00 | 12 | 1001.7 |
| 20260904210041 | 95 | 360 | 2.0 | 0.0 | 0.00 | 0.00 | 0.00 | 12 | 1001.9 |
| 20260904205513 | 95 | 360 | 1.0 | 0.0 | 0.00 | 0.00 | 0.00 | 14 | 1001.8 |
| 20260904205100 | 95 | 360 | 2.0 | 0.0 | 0.00 | 0.00 | 0.00 | 13 | 1001.9 |
| 20260904204545 | 95 | 360 | 2.0 | 0.0 | 0.00 | 0.00 | 0.00 | 13 | 1001.9 |
| 20260904204024 | 93 | 360 | 2.0 | 0.0 | 0.00 | 0.00 | 0.00 | 13 | 1001.8 |
| 20260904203503 | 94 | 360 | 3.0 | 0.0 | 0.00 | 0.00 | 0.00 | 13 | 1001.9 |
| 20260904203101 | 94 | 360 | 3.0 | 0.0 | 0.00 | 0.00 | 0.00 | 13 | 1002.1 |
| 20260904202537 | 93 | 360 | 2.0 | 0.0 | 0.00 | 0.00 | 0.00 | 13 | 1002.0 |
| 20260904202016 | 94 | 360 | 2.0 | 0.0 | 0.00 | 0.00 | 0.00 | 13 | 1002.0 |
| 20260904201600 | 94 | 360 | 2.0 | 0.0 | 0.00 | 0.00 | 0.00 | 13 | 1002.0 |
| 20260904201041 | 94 | 360 | 3.0 | 0.0 | 0.00 | 0.00 | 0.00 | 14 | 1002.1 |
| 20260904200520 | 93 | 360 | 3.0 | 0.0 | 0.00 | 0.00 | 0.00 | 14 | 1002.2 |
| 20260904200002 | 94 | 360 | 2.0 | 0.0 | 0.00 | 0.00 | 0.00 | 13 | 1002.2 |
| 20260904195546 | 93 | 360 | 2.0 | 0.0 | 0.00 | 0.00 | 0.00 | 14 | 1002.3 |
| 20260904195023 | 93 | 360 | 2.0 | 0.0 | 0.00 | 0.00 | 0.00 | 14 | 1002.4 |
| 20260904194502 | 93 | 360 | 2.0 | 0.0 | 0.00 | 0.00 | 0.00 | 14 | 1002.4 |
| 20260904194045 | 93 | 360 | 2.0 | 0.0 | 0.00 | 0.00 | 0.00 | 15 | 1002.5 |
| 20260904193525 | 92 | 360 | 3.0 | 0.0 | 0.00 | 0.00 | 0.00 | 14 | 1002.7 |
| 20260904193005 | 93 | 360 | 3.0 | 0.0 | 0.00 | 0.00 | 0.00 | 14 | 1002.8 |
| 20260904192550 | 92 | 360 | 2.0 | 0.0 | 0.00 | 0.00 | 0.00 | 14 | 1002.8 |
| 20260904192031 | 92 | 360 | 2.0 | 0.0 | 0.00 | 0.00 | 0.00 | 15 | 1002.8 |
| 20260904191508 | 92 | 360 | 2.0 | 0.0 | 0.00 | 0.00 | 0.00 | 14 | 1003.0 |
| 20260904191052 | 92 | 360 | 2.0 | 0.0 | 0.00 | 0.00 | 0.00 | 15 | 1003.0 |
| 20260904190533 | 91 | 360 | 2.0 | 0.0 | 0.00 | 0.00 | 0.00 | 16 | 1003.1 |
| 20260904190012 | 91 | 360 | 2.0 | 0.0 | 0.00 | 0.00 | 0.00 | 16 | 1003.3 |
| 20260904185553 | 91 | 360 | 2.0 | 0.0 | 0.00 | 0.00 | 0.00 | 16 | 1003.1 |
| 20260904185033 | 92 | 360 | 2.0 | 0.0 | 0.00 | 0.00 | 0.00 | 16 | 1003.1 |
| 20260904184510 | 91 | 360 | 2.0 | 0.0 | 0.00 | 0.00 | 0.00 | 16 | 1003.3 |
| 20260904184056 | 90 | 360 | 2.0 | 0.0 | 0.00 | 0.00 | 0.00 | 17 | 1003.3 |
| 20260904183539 | 90 | 360 | 2.0 | 0.0 | 0.00 | 0.00 | 0.00 | 17 | 1003.4 |
| 20260904183022 | 90 | 360 | 2.0 | 0.0 | 0.00 | 0.00 | 0.00 | 17 | 1003.4 |
| 20260904182500 | 90 | 360 | 2.0 | 0.0 | 0.00 | 0.00 | 0.00 | 18 | 1003.5 |
| 20260904182041 | 89 | 360 | 2.0 | 0.0 | 0.00 | 0.00 | 0.00 | 18 | 1003.4 |
| 20260904181529 | 89 | 360 | 3.0 | 0.0 | 0.00 | 0.00 | 0.00 | 18 | 1003.7 |
| 20260904181003 | 88 | 360 | 3.0 | 0.0 | 0.00 | 0.00 | 0.00 | 18 | 1003.7 |
| 20260904180543 | 88 | 360 | 3.0 | 0.0 | 0.00 | 0.00 | 0.00 | 18 | 1003.7 |
| 20260904180023 | 88 | 360 | 3.0 | 0.0 | 0.00 | 0.00 | 0.00 | 18 | 1003.7 |
| 20260904175606 | 88 | 360 | 3.0 | 0.0 | 0.00 | 0.00 | 0.00 | 17 | 1003.7 |
| 20260904175046 | 88 | 360 | 2.0 | 0.0 | 0.00 | 0.00 | 0.00 | 18 | 1003.6 |
| 20260904174525 | 87 | 360 | 3.0 | 0.0 | 0.00 | 0.00 | 0.00 | 17 | 1003.6 |
| 20260904174005 | 88 | 360 | 2.0 | 0.0 | 0.00 | 0.00 | 0.00 | 17 | 1003.6 |
| 20260904173546 | 88 | 360 | 2.0 | 0.0 | 0.00 | 0.00 | 0.00 | 17 | 1003.6 |
| 20260904173043 | 88 | 360 | 2.0 | 0.0 | 0.00 | 0.00 | 0.00 | 17 | 1003.7 |
| 20260904172505 | 88 | 360 | 2.0 | 0.0 | 0.00 | 0.00 | 0.00 | 19 | 1003.7 |
| 20260904172046 | 88 | 360 | 2.0 | 0.0 | 0.00 | 0.00 | 0.00 | 19 | 1003.6 |
| 20260904171523 | 87 | 360 | 2.0 | 0.0 | 0.00 | 0.00 | 0.00 | 20 | 1003.7 |
| 20260904171002 | 86 | 360 | 2.0 | 0.0 | 0.00 | 0.00 | 0.00 | 21 | 1003.8 |
| 20260904170545 | 86 | 360 | 2.0 | 0.0 | 0.00 | 0.00 | 0.00 | 21 | 1003.7 |
| 20260904170024 | 86 | 360 | 2.0 | 0.0 | 0.00 | 0.00 | 0.00 | 21 | 1003.6 |
| 20260904165502 | 86 | 360 | 1.0 | 0.0 | 0.00 | 0.00 | 0.00 | 21 | 1003.3 |
| 20260904165054 | 86 | 360 | 1.0 | 0.0 | 0.00 | 0.00 | 0.00 | 22 | 1003.4 |
| 20260904164529 | 86 | 360 | 1.0 | 0.0 | 0.00 | 0.00 | 0.00 | 22 | 1003.4 |
| 20260904164006 | 86 | 360 | 1.0 | 0.0 | 0.00 | 0.00 | 0.00 | 22 | 1003.4 |
| 20260904163548 | 85 | 360 | 1.0 | 0.0 | 0.00 | 0.00 | 0.00 | 23 | 1003.3 |
| 20260904163027 | 84 | 360 | 2.0 | 0.0 | 0.00 | 0.00 | 0.00 | 24 | 1003.3 |
| 20260904162507 | 84 | 360 | 1.0 | 0.0 | 0.00 | 0.00 | 0.00 | 24 | 1003.6 |
| 20260904162051 | 84 | 360 | 1.0 | 0.0 | 0.00 | 0.00 | 0.00 | 24 | 1003.5 |
| 20260904161530 | 83 | 360 | 2.0 | 0.0 | 0.00 | 0.00 | 0.00 | 25 | 1003.6 |
| 20260904161007 | 82 | 360 | 2.0 | 0.0 | 0.00 | 0.00 | 0.00 | 25 | 1003.5 |
| 20260904160548 | 82 | 360 | 2.0 | 0.0 | 0.00 | 0.00 | 0.00 | 26 | 1003.6 |
| 20260904160024 | 81 | 360 | 2.0 | 0.0 | 0.00 | 0.00 | 0.00 | 26 | 1003.6 |
| 20260904155502 | 81 | 360 | 2.0 | 0.0 | 0.00 | 0.00 | 0.00 | 26 | 1003.5 |
| 20260904155050 | 81 | 360 | 2.0 | 0.0 | 0.00 | 0.00 | 0.00 | 27 | 1003.5 |
| 20260904154529 | 80 | 360 | 2.0 | 0.0 | 0.00 | 0.00 | 0.00 | 27 | 1003.4 |
| 20260904154008 | 79 | 360 | 4.0 | 0.0 | 0.00 | 0.00 | 0.00 | 28 | 1003.5 |
| 20260904153552 | 79 | 360 | 4.0 | 0.0 | 0.00 | 0.00 | 0.00 | 28 | 1003.7 |
| 20260904153034 | 79 | 360 | 3.0 | 0.0 | 0.00 | 0.00 | 0.00 | 29 | 1003.6 |
| 20260904152509 | 79 | 360 | 3.0 | 0.0 | 0.00 | 0.00 | 0.00 | 29 | 1003.6 |
| 20260904152053 | 78 | 360 | 2.0 | 0.0 | 0.00 | 0.00 | 0.00 | 29 | 1003.5 |
| 20260904151534 | 78 | 360 | 3.0 | 0.0 | 0.00 | 0.00 | 0.00 | 29 | 1003.4 |
| 20260904151012 | 78 | 360 | 3.0 | 0.0 | 0.00 | 0.00 | 0.00 | 29 | 1003.6 |
| 20260904150555 | 78 | 360 | 3.0 | 0.0 | 0.00 | 0.00 | 0.00 | 30 | 1003.4 |
| 20260904150035 | 77 | 360 | 3.0 | 0.0 | 0.00 | 0.00 | 0.00 | 30 | 1003.3 |
| 20260904145513 | 77 | 360 | 3.0 | 0.0 | 0.00 | 0.00 | 0.00 | 30 | 1003.3 |
| 20260904145059 | 76 | 360 | 3.0 | 0.0 | 0.00 | 0.00 | 0.00 | 31 | 1003.3 |
| 20260904144533 | 76 | 360 | 3.0 | 0.0 | 0.00 | 0.00 | 0.00 | 31 | 1003.5 |
| 20260904144013 | 76 | 360 | 3.0 | 0.0 | 0.00 | 0.00 | 0.00 | 32 | 1003.4 |
| 20260904143555 | 75 | 360 | 3.0 | 0.0 | 0.00 | 0.00 | 0.00 | 32 | 1003.3 |
| 20260904143048 | 75 | 360 | 2.0 | 0.0 | 0.00 | 0.00 | 0.00 | 33 | 1003.2 |
| 20260904142515 | 75 | 360 | 2.0 | 0.0 | 0.00 | 0.00 | 0.00 | 33 | 1003.2 |
| 20260904142056 | 74 | 360 | 2.0 | 0.0 | 0.00 | 0.00 | 0.00 | 33 | 1003.1 |
| 20260904141536 | 74 | 360 | 1.0 | 0.0 | 0.00 | 0.00 | 0.00 | 33 | 1003.0 |
| 20260904141012 | 74 | 360 | 1.0 | 0.0 | 0.00 | 0.00 | 0.00 | 33 | 1003.3 |
| 20260904140557 | 74 | 360 | 1.0 | 0.0 | 0.00 | 0.00 | 0.00 | 33 | 1003.3 |
| 20260904140038 | 74 | 360 | 1.0 | 0.0 | 0.00 | 0.00 | 0.00 | 34 | 1003.1 |
| 20260904135520 | 73 | 360 | 1.0 | 0.0 | 0.00 | 0.00 | 0.00 | 34 | 1002.7 |
| 20260904135057 | 73 | 360 | 1.0 | 0.0 | 0.00 | 0.00 | 0.00 | 34 | 1002.8 |
| 20260904134537 | 73 | 360 | 0.0 | 0.0 | 0.00 | 0.00 | 0.00 | 33 | 1002.7 |
| 20260904134019 | 74 | 360 | 1.0 | 0.0 | 0.00 | 0.00 | 0.00 | 33 | 1002.7 |
| 20260904133600 | 74 | 360 | 1.0 | 0.0 | 0.00 | 0.00 | 0.00 | 33 | 1002.7 |
| 20260904133040 | 74 | 360 | 1.0 | 0.0 | 0.00 | 0.00 | 0.00 | 33 | 1002.6 |
| 20260904132519 | 73 | 360 | 1.0 | 0.0 | 0.00 | 0.00 | 0.00 | 34 | 1002.5 |
| 20260904132059 | 73 | 360 | 1.0 | 0.0 | 0.00 | 0.00 | 0.00 | 33 | 1002.4 |
| 20260904131537 | 74 | 360 | 1.0 | 0.0 | 0.00 | 0.00 | 0.00 | 33 | 1002.3 |
| 20260904131020 | 73 | 360 | 1.0 | 0.0 | 0.00 | 0.00 | 0.00 | 34 | 1002.2 |
| 20260904130604 | 73 | 360 | 1.0 | 0.0 | 0.00 | 0.00 | 0.00 | 34 | 1002.2 |
| 20260904130046 | 73 | 360 | 1.0 | 0.0 | 0.00 | 0.00 | 0.00 | 34 | 1002.4 |
| 20260904125525 | 73 | 360 | 1.0 | 0.0 | 0.00 | 0.00 | 0.00 | 34 | 1001.9 |
| 20260904125004 | 72 | 360 | 1.0 | 0.0 | 0.00 | 0.00 | 0.00 | 34 | 1001.7 |
| 20260904124602 | 72 | 360 | 1.0 | 0.0 | 0.00 | 0.00 | 0.00 | 34 | 1001.8 |
| 20260904124028 | 72 | 360 | 1.0 | 0.0 | 0.00 | 0.00 | 0.00 | 34 | 1001.7 |
| 20260904123508 | 73 | 360 | 1.0 | 0.0 | 0.00 | 0.00 | 0.00 | 34 | 1001.6 |
| 20260904123052 | 73 | 360 | 1.0 | 0.0 | 0.00 | 0.00 | 0.00 | 34 | 1001.5 |
| 20260904122537 | 73 | 360 | 1.0 | 0.0 | 0.00 | 0.00 | 0.00 | 34 | 1001.4 |
| 20260904122019 | 73 | 360 | 1.0 | 0.0 | 0.00 | 0.00 | 0.00 | 33 | 1001.4 |
| 20260904121601 | 73 | 360 | 1.0 | 0.0 | 0.00 | 0.00 | 0.00 | 33 | 1001.4 |
| 20260904121048 | 73 | 360 | 1.0 | 0.0 | 0.00 | 0.00 | 0.00 | 32 | 1001.3 |
| 20260904120524 | 73 | 360 | 1.0 | 0.0 | 0.00 | 0.00 | 0.00 | 32 | 1001.3 |
| 20260904120002 | 73 | 360 | 1.0 | 0.0 | 0.00 | 0.00 | 0.00 | 32 | 1001.3 |
| 20260904115548 | 73 | 360 | 1.0 | 0.0 | 0.00 | 0.00 | 0.00 | 32 | 1001.2 |
| 20260904115030 | 73 | 360 | 1.0 | 0.0 | 0.00 | 0.00 | 0.00 | 32 | 1001.2 |
| 20260904114507 | 73 | 360 | 1.0 | 0.0 | 0.00 | 0.00 | 0.00 | 32 | 1001.2 |
| 20260904114051 | 73 | 360 | 1.0 | 0.0 | 0.00 | 0.00 | 0.00 | 32 | 1001.2 |
| 20260904113531 | 73 | 360 | 1.0 | 0.0 | 0.00 | 0.00 | 0.00 | 32 | 1001.2 |
| 20260904113010 | 73 | 360 | 1.0 | 0.0 | 0.00 | 0.00 | 0.00 | 32 | 1001.2 |
| 20260904112552 | 73 | 360 | 1.0 | 0.0 | 0.00 | 0.00 | 0.00 | 32 | 1001.1 |
| 20260904112030 | 73 | 360 | 1.0 | 0.0 | 0.00 | 0.00 | 0.00 | 31 | 1000.9 |
| 20260904111509 | 73 | 360 | 1.0 | 0.0 | 0.00 | 0.00 | 0.00 | 30 | 1000.8 |
| 20260904111051 | 74 | 360 | 1.0 | 0.0 | 0.00 | 0.00 | 0.00 | 30 | 1000.8 |
| 20260904110530 | 74 | 360 | 1.0 | 0.0 | 0.00 | 0.00 | 0.00 | 30 | 1000.7 |
| 20260904110009 | 74 | 360 | 1.0 | 0.0 | 0.00 | 0.00 | 0.00 | 29 | 1000.7 |
| 20260904105556 | 74 | 360 | 1.0 | 0.0 | 0.00 | 0.00 | 0.00 | 29 | 1000.6 |
| 20260904105037 | 74 | 360 | 1.0 | 0.0 | 0.00 | 0.00 | 0.00 | 28 | 1000.6 |
| 20260904104514 | 74 | 360 | 1.0 | 0.0 | 0.00 | 0.00 | 0.00 | 28 | 1000.6 |
| 20260904104056 | 74 | 360 | 0.0 | 0.0 | 0.00 | 0.00 | 0.00 | 28 | 1000.6 |
| 20260904103538 | 74 | 360 | 1.0 | 0.0 | 0.00 | 0.00 | 0.00 | 27 | 1000.6 |
| 20260904103021 | 75 | 360 | 1.0 | 0.0 | 0.00 | 0.00 | 0.00 | 26 | 1000.5 |
| 20260904102600 | 74 | 360 | 1.0 | 0.0 | 0.00 | 0.00 | 0.00 | 27 | 1000.5 |
| 20260904102038 | 74 | 360 | 1.0 | 0.0 | 0.00 | 0.00 | 0.00 | 27 | 1000.5 |
| 20260904101517 | 75 | 360 | 0.0 | 0.0 | 0.00 | 0.00 | 0.00 | 26 | 1000.4 |
| 20260904101102 | 75 | 360 | 0.0 | 0.0 | 0.00 | 0.00 | 0.00 | 26 | 1000.4 |
| 20260904100542 | 75 | 360 | 0.0 | 0.0 | 0.00 | 0.00 | 0.00 | 25 | 1000.4 |
| 20260904100022 | 75 | 360 | 1.0 | 0.0 | 0.00 | 0.00 | 0.00 | 25 | 1000.3 |
| 20260904095505 | 75 | 360 | 0.0 | 0.0 | 0.00 | 0.00 | 0.00 | 25 | 1000.2 |
| 20260904095049 | 74 | 360 | 1.0 | 0.0 | 0.00 | 0.00 | 0.00 | 25 | 1000.4 |
| 20260904094532 | 74 | 360 | 0.0 | 0.0 | 0.00 | 0.00 | 0.00 | 24 | 1000.3 |
| 20260904094011 | 74 | 360 | 0.0 | 0.0 | 0.00 | 0.00 | 0.00 | 23 | 1000.3 |
| 20260904093555 | 74 | 360 | 0.0 | 0.0 | 0.00 | 0.00 | 0.00 | 23 | 1000.4 |
| 20260904093037 | 74 | 360 | 0.0 | 0.0 | 0.00 | 0.00 | 0.00 | 22 | 1000.3 |
| 20260904092516 | 74 | 360 | 0.0 | 0.0 | 0.00 | 0.00 | 0.00 | 23 | 1000.3 |
| 20260904092101 | 74 | 360 | 0.0 | 0.0 | 0.00 | 0.00 | 0.00 | 22 | 1000.2 |
| 20260904091550 | 75 | 360 | 0.0 | 0.0 | 0.00 | 0.00 | 0.00 | 22 | 1000.2 |
| 20260904091024 | 75 | 360 | 0.0 | 0.0 | 0.00 | 0.00 | 0.00 | 21 | 1000.1 |
| 20260904090503 | 75 | 360 | 0.0 | 0.0 | 0.00 | 0.00 | 0.00 | 20 | 1000.1 |
| 20260904090046 | 76 | 360 | 0.0 | 0.0 | 0.00 | 0.00 | 0.00 | 20 | 1000.1 |
| 20260904085526 | 75 | 360 | 0.0 | 0.0 | 0.00 | 0.00 | 0.00 | 20 | 1000.2 |
| 20260904085008 | 75 | 360 | 0.0 | 0.0 | 0.00 | 0.00 | 0.00 | 19 | 1000.3 |
| 20260904084548 | 76 | 360 | 0.0 | 0.0 | 0.00 | 0.00 | 0.00 | 19 | 1000.3 |
| 20260904084034 | 76 | 360 | 0.0 | 0.0 | 0.00 | 0.00 | 0.00 | 19 | 1000.1 |
| 20260904083512 | 76 | 360 | 0.0 | 0.0 | 0.00 | 0.00 | 0.00 | 18 | 1000.0 |
| 20260904083102 | 76 | 360 | 0.0 | 0.0 | 0.00 | 0.00 | 0.00 | 18 | 1000.1 |
| 20260904082544 | 76 | 360 | 0.0 | 0.0 | 0.00 | 0.00 | 0.00 | 18 | 1000.1 |
| 20260904082025 | 77 | 360 | 0.0 | 0.0 | 0.00 | 0.00 | 0.00 | 18 | 1000.2 |
| 20260904081508 | 77 | 360 | 0.0 | 0.0 | 0.00 | 0.00 | 0.00 | 18 | 1000.2 |
| 20260904081052 | 77 | 360 | 0.0 | 0.0 | 0.00 | 0.00 | 0.00 | 18 | 1000.2 |
| 20260904080540 | 77 | 360 | 0.0 | 0.0 | 0.00 | 0.00 | 0.00 | 17 | 1000.1 |
| 20260904080022 | 77 | 360 | 0.0 | 0.0 | 0.00 | 0.00 | 0.00 | 17 | 1000.1 |
| 20260904075605 | 76 | 360 | 0.0 | 0.0 | 0.00 | 0.00 | 0.00 | 17 | 1000.3 |
| 20260904075044 | 76 | 360 | 0.0 | 0.0 | 0.00 | 0.00 | 0.00 | 17 | 1000.2 |
| 20260904074539 | 76 | 360 | 0.0 | 0.0 | 0.00 | 0.00 | 0.00 | 17 | 1000.2 |
| 20260904074005 | 76 | 360 | 0.0 | 0.0 | 0.00 | 0.00 | 0.00 | 16 | 1000.3 |
| 20260904073546 | 77 | 360 | 0.0 | 0.0 | 0.00 | 0.00 | 0.00 | 16 | 1000.2 |
| 20260904073031 | 78 | 360 | 0.0 | 0.0 | 0.00 | 0.00 | 0.00 | 17 | 1000.1 |
| 20260904072506 | 78 | 360 | 0.0 | 0.0 | 0.00 | 0.00 | 0.00 | 16 | 1000.1 |
| 20260904072049 | 78 | 360 | 0.0 | 0.0 | 0.00 | 0.00 | 0.00 | 16 | 1000.0 |